NOAA 16 DEB, 41198

Orbit data source: Space-Track

NOAA 16 DEB, 41198 is space debris in SSO originally from a launch on Thu, 21 Sep 2000 UTC launched from the Air Force Western Test Range (AFWTR). Debris objects in space refer to the collection of defunct objects orbiting the Earth. Examples of debris include non-operational satellites, rocket bodies, and fragments generated from explosions, collisions, or faulty payload assembly.

Loading next visibility...
Identifier
41198, 2000-055DB
Orbit
SSO
Country
Flag of USUS
Related business
Manufacturer
Unknown
Mission
Spacecraft
Bus & Motor
Unknown
Mass
Unknown
Launch date (UTC)
2000-09-21 (25 years ago)
Launch vehicle
Unknown
Launch site
Air Force Western Test Range (AFWTR)
Object type
Payload
Rocket body
Debris
Shape & HBR
Unknown shape, 0.1 m
Radar Cross Section
Small (<0.1 m²)

Expand to show TLE details & history
Last TLE update: 13 hours ago

TLE from 13 hours ago
0 NOAA 16 DEB
1 41198U 00055DB  25289.02219986  .00017311  00000-0  56358-2 0  9998
2 41198  98.9154  28.7343 0026671 164.8993 195.2995 14.38570996506586
Epoch: 2025-10-16T00:31Z
TLE epoch observation values (Epoch: 2025-10-16T00:31:58.067Z)
Latitude
-0.00006°
Longitude
-4.04553°
Altitude
784.536 km
Speed
7.452 km/s
True Right ascension
01h 54m 56s
True Declination
0° 00' 00"
Sunlit
Object was in full shadow at epoch
Visualization orbit readout
Latitude
Unknown
Longitude
Unknown
Altitude
Unknown
Speed
Unknown
Apparent Right ascension
Unknown
Apparent Declination
Unknown
Sunlit
N/A
Visualization observer readout
Local Sidereal Time
07:54:28
Azimuth
Unknown
Elevation
Unknown
Doppler factor
Unknown
Orbital elements
Apogee altitude
779.407 km
Perigee altitude
741.329 km
Semi-major axis
7,138.505 km
Eccentricity
0.00267
Inclination
98.9154°
RAAN
28.7343°
Arg. of periapsis
164.8993°
True anomaly
195.21911°
Mean anomaly
195.2995°
Eccentric anomaly
195.25928°
Mean motion
3.59859 °/min
Orbital period
100.04 mins
BSTAR
0.0056358
Loading maneuver chart data...
Computing Atmospheric mass density...

Documentation

Showing up to 5 results
|